#timestamp,LO_Frequency,Hit,StdDev 
1600963215.4,286046992.3,Y
1600963235.2,286046994.9,P
1600963255.1,286046995.4,P
1600963256.0,286046995.4,P
1600963275.8,286046997.9,Y
1600963295.6,286047001.3,P
1600963315.5,286046999.7,N
1600963335.3,286047001.4,N
1600963355.1,286047002.0,N
1600963375.9,286047002.3,N
1600963395.7,286047002.8,N
1600963415.6,286047001.9,N
1600963435.4,286047002.7,N
1600963455.2,286047001.7,N
1600963475.1,286047002.2,N
1600963476.0,286047002.2,N
1600963495.8,286047002.3,N
1600963515.7,286047001.4,N
1600963535.5,286047000.1,N
1600963555.3,286047000.2,N
1600963575.2,286047001.9,N
1600963595.0,286047002.0,N
1600963595.9,286047002.0,N
1600963615.7,286046999.9,N
1600963635.6,286047000.8,N
1600963655.4,286046999.4,N
1600963675.3,286047002.1,N
1600963695.1,286047000.2,N
1600963696.0,286047000.2,N
1600963715.8,286047002.1,N
1600963735.7,286047000.4,N
1600963755.5,286046999.8,N
1600963775.4,286046999.9,N
1600963795.2,286047002.3,N
1600963815.0,286047001.9,N
1600963815.9,286047001.9,N
1600963835.8,286047002.7,N
1600963855.6,286047000.3,N
1600963875.4,286047000.6,N
1600963895.3,286047000.9,N
1600963915.1,286046998.8,N
1600963935.9,286047000.0,N
1600963955.7,286047001.4,N
1600963975.5,286047005.6,Y
1600963995.4,286047005.6,P
1600964015.2,286047007.6,P
1600964035.0,286047007.1,N
1600964036.0,286047007.1,N
1600964055.8,286047005.5,N
1600964075.6,286047004.4,N
1600964095.5,286047005.7,N
1600964115.3,286047004.5,N
1600964135.1,286047006.8,Y
1600964155.9,286047002.7,P
1600964175.7,286047000.0,N
1600964195.6,286047004.4,N
1600964215.4,286047001.6,N
1600964235.2,286046998.1,N
1600964255.1,286047000.0,N
1600964256.0,286047000.0,N
1600964275.8,286046998.6,N
1600964295.7,286046997.1,N
1600964315.5,286046993.8,N
1600964335.3,286046994.1,N
1600964355.2,286046995.8,N
1600964375.9,286046997.4,N
1600964395.7,286046995.2,N
1600964415.6,286046996.4,N
1600964435.4,286046993.9,N
1600964455.3,286046993.3,N
1600964475.1,286046996.4,N
1600964476.0,286046996.4,N
1600964495.8,286046993.3,N
1600964515.7,286046996.1,N
1600964535.5,286046993.4,N
1600964555.3,286046996.0,N
1600964575.2,286046995.8,N
1600964595.0,286046996.4,N
1600964595.9,286046996.4,N
1600964615.8,286046994.4,N
1600964635.6,286046994.2,N
1600964655.4,286046994.2,N
1600964675.3,286046992.6,N
1600964695.1,286046988.8,Y
1600964715.9,286046995.9,P
1600964735.7,286046993.7,P
1600964755.5,286046993.7,P
1600964775.4,286046996.1,Y
1600964795.2,286046996.6,P
1600964815.0,286047000.8,N
1600964815.9,286047000.8,N
1600964835.8,286046998.6,N
1600964855.6,286046999.6,N
1600964875.5,286047000.6,N
1600964895.3,286046998.7,N
1600964915.1,286046998.3,N
1600964935.9,286046996.9,N
1600964955.7,286047000.8,N
1600964975.5,286047000.4,N
1600964995.4,286047001.7,N
1600965015.2,286047000.3,N
1600965035.1,286047000.9,N
1600965036.0,286047000.9,N
1600965055.8,286046999.7,N
1600965075.6,286047002.7,N
1600965095.5,286047002.8,N
1600965115.3,286047002.7,N
1600965135.1,286047000.3,N
1600965155.9,286047000.2,N
1600965175.7,286047000.4,N
1600965195.6,286047000.6,N
1600965215.4,286047000.7,N
1600965235.2,286047011.9,Y
1600965255.1,286046997.1,P
1600965256.0,286046997.1,N
1600965275.8,286046996.5,N
1600965295.7,286047001.2,N
1600965315.5,286047002.3,N
1600965335.3,286047004.0,N
1600965355.2,286047004.3,N
1600965375.0,286047002.4,N
1600965375.9,286047002.4,N
1600965395.7,286046998.6,N
1600965445.6,286046998.4,E
1600965455.5,286047000.9,N
1600965475.4,286047002.8,P
1600965495.2,286047001.9,N
1600965515.0,286047001.7,N
1600965515.9,286047001.7,N
1600965535.8,286047002.1,Y
1600965555.6,286047002.5,P
1600965575.5,286046998.6,P
1600965595.3,286047000.5,N
1600965615.1,286047001.0,N
1600965635.9,286047000.3,N
1600965655.7,286046998.0,N
1600965675.6,286046995.2,Y
1600965695.4,286046995.0,P
1600965715.2,286046999.4,N
1600965735.1,286046998.4,N
1600965736.0,286046998.4,N
1600965755.8,286047000.8,N
1600965775.6,286046998.8,N
1600965795.5,286046999.1,N
1600965815.3,286047000.4,N
1600965835.2,286046999.9,N
1600965855.9,286047002.4,N
1600965875.7,286047002.0,N
1600965895.6,286047001.5,N
1600965915.4,286047001.6,N
1600965935.3,286047000.3,N
1600965955.1,286046998.2,N
1600965956.0,286046998.2,N
1600965975.8,286047000.9,N
1600965995.7,286046997.4,N
1600966015.5,286046999.4,N
1600966035.3,286046999.9,N
1600966055.2,286047000.8,N
1600966075.0,286047000.5,N
1600966075.9,286047000.5,N
1600966095.8,286046995.7,N
1600966115.6,286046995.6,N
1600966135.4,286046995.7,N
1600966155.3,286046994.4,N
1600966175.1,286046994.2,N
1600966195.8,286046995.1,N
1600966215.7,286046997.3,N
1600966235.5,286046999.6,N
1600966255.4,286046996.9,N
1600966275.2,286046998.0,N
1600966295.0,286046996.8,N
1600966295.9,286046996.8,N
1600966315.8,286046999.4,N
1600966335.6,286046995.9,N
1600966355.5,286046996.1,N
1600966375.3,286046997.0,N
1600966395.1,286046996.3,N
1600966415.9,286046992.5,Y
1600966435.7,286046995.9,P
1600966455.5,286046997.2,N
1600966475.4,286046999.5,N
1600966495.2,286046998.8,N
1600966515.1,286046999.1,N
1600966516.0,286046999.1,N
1600966535.8,286046998.7,N
1600966555.6,286046998.6,N
1600966575.5,286047000.3,N
1600966595.3,286047001.5,N
1600966615.2,286047002.5,N
1600966635.9,286047000.8,N
1600966655.7,286046999.4,N
1600966675.6,286046999.6,N
1600966695.4,286047000.8,N
1600966715.2,286047000.7,N
1600966735.1,286047001.1,N
1600966736.0,286047001.1,N
1600966755.8,286046998.3,N
1600966775.7,286046999.2,N
1600966795.5,286046997.6,N
